{"data":{"norad_id":52535,"intl_designator":"2022-051C","name":"STARLINK-3958","alt_names":[],"object_type":"PAYLOAD","status":"ACTIVE","operator":null,"country":"US","launch_date":"2022-05-13","launch_site_code":"AFWTR","launch_vehicle":null,"mission":null,"orbit_class":"UNKNOWN","rcs_meters":null,"size_class":null,"mass_kg":null,"dimensions":null,"purposes":["comms"],"wikipedia_slug":null,"has_3d_model":false,"image_url":null,"decayed_at":null,"tle_current":{"epoch":"2026-09-20T04:29:08.724192Z","epoch_age_seconds":90366,"freshness":"FRESH","line1":"1 52535U 22051C   26263.18690653  .00000277  00000+0  19760-4 0  9999","line2":"2 52535  53.1601 323.3735 0001071  76.6371 283.4750 15.33552167240972","mean_motion":15.33552167,"eccentricity":0.0001071,"inclination_deg":53.1601,"raan_deg":323.3735,"arg_perigee_deg":76.6371,"mean_anomaly_deg":283.475,"bstar":1.976e-5,"rev_number":24097,"period_min":93.899642345848,"perigee_km":464.49141545354,"apogee_km":465.95726345245,"semimajor_km":6843.361339453,"source":"CELESTRAK","updated_at":"2026-09-20T09:00:40.058003Z"}}}